[[{"header":{"parameterUnit":"m.s-1","parameterCategory":1,"la1":30.2991,"la2":30.254,"lo1":-89.0895,"lo2":-89.0444,"dy":0.0017,"dx":0.0017,"nx":28,"ny":28,"refTime":"2023-09-01T03:00:00:Z","depth":0,"parameterNumber":2,"parameterNumberName":"U-component_of_WINDS"},"data":[0,0,0,0,0,0,0,0,0,0,0,0,0,0,0,0,0,0,0,0,0,0,0,0,0,0,0,0,0,0,0,0,0,0,0,0,0,0,0,0,0,0,0,0,0,0,0,0,0,0,0,0,0,0,0,0,0,0,0.5381,0.5382,0,0.5485,0.5486,0.5487,0.5507,0.5506,0.5505,0.5504,0.5615,0.5619,0.5622,0,0,0,0,0,0,0,0,0,0,0,0,0,0.5204,0.5207,0.538,0.5382,0.5383,0.5485,0.5486,0.5488,0.5507,0.5506,0.5505,0.5504,0.5614,0.5618,0.5623,0,0,0,0,0,0,0,0,0,0,0,0,0,0.5291,0.5208,0.538,0.5405,0.5408,0.5484,0.5486,0.5488,0.5507,0.5506,0.5505,0.5503,0.5612,0.5618,0.5623,0.5684,0,0,0.5641,0.5643,0,0,0,0,0,0,0,0,0.5286,0.5298,0.54,0.5403,0.5407,0.5481,0.5464,0.5554,0.5507,0.547,0.5504,0.5503,0.5572,0.5581,0.5603,0.5689,0.5694,0.5641,0.5644,0.5647,0.5648,0,0,0,0,0,0,0,0.528,0.5294,0.5422,0.5401,0.5406,0.5413,0.5424,0.5481,0.5527,0.5473,0.5474,0.5486,0.5574,0.5598,0.5606,0.5695,0.5641,0.5646,0.5649,0.5652,0.5838,0.584,0,0,0,0,0,0,0.5269,0.5288,0.5419,0.5425,0.5342,0.5417,0.5429,0.5459,0.5526,0.5535,0.5487,0.5487,0.5589,0.5599,0.561,0.5686,0.5647,0.5652,0.5655,0.5836,0.5838,0.584,0,0,0,0,0,0,0.5265,0.5281,0.5414,0.5357,0.5375,0.5421,0.5454,0.5462,0.5486,0.5537,0.5546,0.5503,0.5588,0.5602,0.5665,0.569,0.5655,0.566,0.5835,0.5837,0.5839,0.5838,0,0,0,0,0,0,0.526,0.5279,0.5301,0.5357,0.5378,0.5466,0.5456,0.5465,0.5495,0.5495,0.5554,0.5563,0.5588,0.5657,0.5671,0.5697,0.5664,0.5833,0.5836,0.5839,0.5836,0.584,0.5843,0,0,0,0,0,0.5254,0.5297,0.5302,0.5317,0.5406,0.5467,0.5479,0.5506,0.5497,0.552,0.5554,0.5561,0.5685,0.5663,0.5679,0.5708,0.5831,0.5835,0.5838,0.5834,0.5839,0.5843,0,0,0,0,0,0,0.5243,0.5304,0.5311,0.5373,0.5415,0.5471,0.5501,0.551,0.5557,0.5555,0.5588,0.5602,0.5663,0.5692,0.5666,0.5771,0.5758,0.5765,0.5749,0.5754,0.5758,0.575,0.5669,0,0,0,0,0,0.5247,0.5291,0.5343,0.5393,0.5414,0.5454,0.5482,0.5499,0.5544,0.5562,0.56,0.5645,0.5694,0.5726,0.5774,0.5841,0.5855,0.5868,0.5872,0.5875,0.588,0.5919,0.5926,0.5852,0.5852,0.5852,0,0,0.5257,0.5297,0.5322,0.5392,0.5426,0.5472,0.5468,0.5517,0.5552,0.557,0.5632,0.5662,0.5714,0.578,0.581,0.5805,0.5904,0.5879,0.5881,0.5885,0.5924,0.5931,0.5937,0.5854,0.5854,0.5853,0,0,0.5299,0.5333,0.5379,0.5414,0.5466,0.5492,0.5503,0.5559,0.5579,0.5641,0.5656,0.57,0.5784,0.5821,0.5851,0.591,0.5919,0.5925,0.5944,0.5982,0.5988,0.5993,0.6015,0.6022,0.593,0.593,0.593,0,0.5306,0.5374,0.5402,0.545,0.5481,0.5499,0.5547,0.558,0.5646,0.5668,0.5661,0.5768,0.5804,0.588,0.5894,0.5918,0.5933,0.5918,0.5984,0.599,0.5995,0.6017,0.6025,0.5931,0.5931,0.5931,0.593,0,0.538,0.5428,0.5459,0.5521,0.5556,0.5604,0.564,0.5673,0.5688,0.5716,0.5781,0.5826,0.5884,0.5904,0.5919,0.5982,0.5977,0.5977,0.5965,0.6002,0.6023,0.6032,0.5931,0.5931,0.5931,0.5931,0,0,0.5416,0.5494,0.5505,0.5534,0.5594,0.5632,0.5683,0.5739,0.5766,0.5812,0.5856,0.5928,0.5928,0.5962,0.5983,0.6016,0.6061,0.6012,0.6014,0.602,0.6135,0.6135,0.6144,0.6068,0.607,0.6071,0.6131,0,0.5466,0.5553,0.5581,0.5655,0.5701,0.572,0.5764,0.5807,0.5835,0.5879,0.5911,0.5962,0.5958,0.5979,0.6013,0.6048,0.6085,0.6045,0.6111,0.6113,0.6097,0.6154,0.6154,0.6208,0.6139,0.6141,0.6142,0,0.5534,0.558,0.5659,0.5715,0.5735,0.5773,0.5828,0.587,0.592,0.5939,0.5977,0.5996,0.6051,0.6036,0.6114,0.6086,0.6115,0.6137,0.614,0.6147,0.6129,0.6163,0.6226,0.6234,0.6155,0.6153,0.6153,0,0.5553,0.5635,0.5693,0.5718,0.5784,0.5811,0.5841,0.5889,0.5922,0.5971,0.5993,0.6048,0.6078,0.6121,0.6154,0.614,0.623,0.6218,0.6248,0.6247,0.6266,0.6264,0.6334,0.6284,0.6284,0.6284,0.6284,0,0.5606,0.5653,0.5703,0.5738,0.5793,0.5826,0.588,0.591,0.5954,0.5997,0.6018,0.6059,0.6101,0.6148,0.6175,0.6236,0.6249,0.6267,0.6274,0.6265,0.6263,0.6284,0.6282,0.6286,0.6286,0.6285,0.6285,0,0.5635,0.567,0.5735,0.5793,0.5809,0.5847,0.5898,0.5934,0.5964,0.6019,0.6034,0.6082,0.6138,0.6176,0.6249,0.6267,0.6334,0.634,0.6316,0.632,0.6348,0.6345,0.6434,0.6448,0.6389,0.639,0.639,0,0.5666,0.5703,0.5765,0.5795,0.5825,0.5873,0.5906,0.5941,0.5976,0.6037,0.6067,0.6124,0.6172,0.6262,0.6305,0.6361,0.6368,0.6396,0.6377,0.6368,0.637,0.6367,0.6371,0.6399,0.6399,0.6399,0.64,0,0.5717,0.5733,0.578,0.5834,0.5873,0.5917,0.5962,0.5986,0.6029,0.6067,0.6124,0.6162,0.6236,0.6294,0.6355,0.6387,0.6401,0.6405,0.6416,0.6407,0.6392,0.6401,0.6325,0.6403,0.6403,0.6402,0.6402,0.6402,0.5749,0.5783,0.5833,0.5885,0.5922,0.5964,0.6001,0.6036,0.6084,0.6147,0.6165,0.6226,0.6278,0.636,0.6394,0.6443,0.6441,0.6455,0.6459,0.6462,0.6462,0.6385,0.6455,0.6455,0.6455,0.6455,0.6455,0,0.5801,0.5834,0.5882,0.5944,0.5985,0.5994,0.6045,0.608,0.6132,0.6179,0.6226,0.6293,0.635,0.6398,0.6457,0.6487,0.6496,0.6502,0.65,0.6508,0.6461,0.6446,0.6494,0.6494,0.6494,0.6494,0.6494,0.6494,0.5833,0.5892,0.5915,0.5993,0.6027,0.6085,0.6114,0.6153,0.6191,0.6265,0.6312,0.6342,0.639,0.6453,0.6507,0.6519,0.654,0.6545,0.6559,0.6515,0.6511,0.6506,0.6493,0.655,0.655,0.6602,0.6602,0.6603]},{"header":{"parameterUnit":"m.s-1","parameterCategory":1,"la1":30.2991,"la2":30.254,"lo1":-89.0895,"lo2":-89.0444,"dy":0.0017,"dx":0.0017,"nx":28,"ny":28,"refTime":"2023-09-01T03:00:00:Z","depth":0,"parameterNumber":3,"parameterNumberName":"V-component_of_WINDS"},"data":[0,0,0,0,0,0,0,0,0,0,0,0,0,0,0,0,0,0,0,0,0,0,0,0,0,0,0,0,0,0,0,0,0,0,0,0,0,0,0,0,0,0,0,0,0,0,0,0,0,0,0,0,0,0,0,0,0,0,-0.9294,-0.9294,0,-0.9312,-0.9312,-0.9312,-0.9311,-0.9311,-0.9311,-0.931,-0.9328,-0.9329,-0.933,0,0,0,0,0,0,0,0,0,0,0,0,0,-0.9259,-0.9259,-0.9294,-0.9294,-0.9295,-0.9312,-0.9312,-0.9312,-0.9311,-0.9311,-0.9311,-0.931,-0.9328,-0.9329,-0.933,0,0,0,0,0,0,0,0,0,0,0,0,0,-0.9275,-0.9259,-0.9294,-0.9296,-0.9296,-0.9312,-0.9312,-0.9312,-0.9311,-0.9311,-0.9311,-0.931,-0.9328,-0.9329,-0.933,-0.9344,0,0,-0.9333,-0.9333,0,0,0,0,0,0,0,0,-0.9274,-0.9276,-0.9296,-0.9296,-0.9296,-0.9309,-0.9306,-0.9323,-0.9311,-0.9306,-0.931,-0.931,-0.9322,-0.9324,-0.9328,-0.9345,-0.9346,-0.9333,-0.9334,-0.9334,-0.9335,0,0,0,0,0,0,0,-0.9273,-0.9275,-0.9301,-0.9296,-0.9296,-0.9296,-0.9298,-0.9309,-0.9316,-0.9306,-0.9306,-0.9308,-0.9322,-0.9327,-0.9328,-0.9346,-0.9333,-0.9334,-0.9335,-0.9335,-0.9375,-0.9375,0,0,0,0,0,0,-0.9271,-0.9274,-0.93,-0.9302,-0.9284,-0.9297,-0.9299,-0.9305,-0.9316,-0.9317,-0.9309,-0.9308,-0.9325,-0.9327,-0.9329,-0.9346,-0.9334,-0.9335,-0.9336,-0.9374,-0.9375,-0.9375,0,0,0,0,0,0,-0.9271,-0.9274,-0.93,-0.9288,-0.9291,-0.9298,-0.9305,-0.9306,-0.931,-0.9317,-0.9319,-0.9312,-0.9325,-0.9327,-0.934,-0.9346,-0.9336,-0.9337,-0.9374,-0.9374,-0.9375,-0.938,0,0,0,0,0,0,-0.927,-0.9273,-0.9279,-0.9288,-0.9292,-0.9311,-0.9305,-0.9306,-0.9312,-0.9312,-0.9321,-0.9322,-0.9325,-0.9338,-0.9341,-0.9348,-0.9337,-0.9373,-0.9374,-0.9375,-0.9379,-0.9381,-0.9382,0,0,0,0,0,-0.9268,-0.928,-0.9279,-0.9283,-0.9299,-0.9312,-0.9314,-0.9317,-0.9313,-0.9318,-0.9323,-0.9322,-0.9345,-0.934,-0.9343,-0.935,-0.9373,-0.9374,-0.9375,-0.9379,-0.938,-0.9382,0,0,0,0,0,0,-0.9272,-0.9281,-0.9281,-0.9296,-0.9303,-0.9311,-0.9319,-0.9318,-0.9327,-0.9326,-0.9329,-0.9331,-0.9344,-0.9348,-0.9342,-0.9363,-0.9358,-0.936,-0.936,-0.9362,-0.9363,-0.9362,-0.9338,0,0,0,0,0,-0.9274,-0.9283,-0.9291,-0.9304,-0.9307,-0.9312,-0.9318,-0.9319,-0.9327,-0.933,-0.9335,-0.9342,-0.9351,-0.9357,-0.9365,-0.938,-0.9381,-0.9386,-0.9387,-0.9388,-0.9389,-0.9397,-0.9399,-0.9378,-0.9378,-0.9378,0,0,-0.9279,-0.9286,-0.9291,-0.9304,-0.931,-0.9319,-0.9315,-0.9325,-0.9332,-0.9331,-0.9343,-0.9348,-0.9355,-0.9369,-0.9375,-0.9373,-0.9395,-0.9389,-0.939,-0.9391,-0.9398,-0.94,-0.9401,-0.9379,-0.9379,-0.9379,0,0,-0.9294,-0.9299,-0.931,-0.9316,-0.9324,-0.9327,-0.933,-0.9338,-0.9341,-0.9354,-0.9353,-0.9361,-0.9376,-0.9382,-0.9387,-0.9402,-0.9401,-0.9404,-0.9411,-0.9419,-0.942,-0.9422,-0.9427,-0.9429,-0.9406,-0.9406,-0.9406,0,-0.9299,-0.9313,-0.9316,-0.9326,-0.9331,-0.9331,-0.9341,-0.9347,-0.9358,-0.9361,-0.9358,-0.9377,-0.9382,-0.9397,-0.9401,-0.9405,-0.9407,-0.9404,-0.942,-0.9421,-0.9423,-0.9428,-0.943,-0.9406,-0.9406,-0.9406,-0.9406,0,-0.9319,-0.9329,-0.9337,-0.9347,-0.9353,-0.9364,-0.9367,-0.9373,-0.9374,-0.9377,-0.9389,-0.9396,-0.9405,-0.9409,-0.941,-0.9423,-0.9421,-0.9419,-0.9414,-0.9425,-0.943,-0.9432,-0.9407,-0.9407,-0.9406,-0.9406,0,0,-0.9337,-0.9348,-0.9351,-0.9355,-0.9364,-0.9371,-0.9381,-0.9391,-0.9395,-0.9403,-0.9411,-0.9423,-0.9421,-0.9426,-0.9428,-0.9434,-0.9445,-0.9431,-0.9431,-0.9433,-0.946,-0.9462,-0.9464,-0.9445,-0.9445,-0.9445,-0.9459,0,-0.9352,-0.937,-0.9372,-0.9388,-0.9397,-0.9396,-0.9404,-0.941,-0.9413,-0.9421,-0.9424,-0.9433,-0.943,-0.9433,-0.9439,-0.9443,-0.9451,-0.9442,-0.9452,-0.9452,-0.945,-0.9467,-0.9469,-0.9482,-0.9461,-0.9462,-0.9462,0,-0.9372,-0.938,-0.9397,-0.9404,-0.9407,-0.9415,-0.9423,-0.9431,-0.9437,-0.9439,-0.9445,-0.9445,-0.9455,-0.9449,-0.9462,-0.9456,-0.946,-0.9462,-0.9463,-0.9464,-0.9458,-0.9468,-0.9486,-0.9488,-0.9465,-0.9465,-0.9464,0,-0.9383,-0.9398,-0.9409,-0.9413,-0.9422,-0.9427,-0.9431,-0.9437,-0.9442,-0.9449,-0.9453,-0.9461,-0.9465,-0.9471,-0.9473,-0.9469,-0.9486,-0.9481,-0.9488,-0.9488,-0.9492,-0.9492,-0.951,-0.9494,-0.9494,-0.9494,-0.9494,0,-0.94,-0.941,-0.9414,-0.9421,-0.9432,-0.9434,-0.9445,-0.9449,-0.9454,-0.9462,-0.9461,-0.9468,-0.9471,-0.9478,-0.948,-0.949,-0.9492,-0.9494,-0.9494,-0.9494,-0.9494,-0.9497,-0.9496,-0.9495,-0.9495,-0.9495,-0.9495,0,-0.9414,-0.9418,-0.943,-0.9437,-0.9439,-0.9447,-0.9452,-0.9459,-0.9462,-0.9471,-0.9473,-0.9478,-0.9486,-0.9489,-0.9499,-0.95,-0.9512,-0.9512,-0.951,-0.951,-0.9517,-0.9516,-0.9538,-0.9541,-0.9523,-0.9524,-0.9524,0,-0.9425,-0.9433,-0.944,-0.9445,-0.9449,-0.9457,-0.9462,-0.9464,-0.947,-0.9477,-0.9483,-0.9491,-0.9498,-0.9511,-0.9515,-0.9523,-0.9523,-0.953,-0.9524,-0.9523,-0.9522,-0.9522,-0.9523,-0.9531,-0.9531,-0.9531,-0.9532,0,-0.9443,-0.9444,-0.9452,-0.946,-0.9466,-0.9472,-0.9478,-0.9482,-0.9485,-0.9491,-0.9499,-0.9505,-0.9515,-0.9523,-0.953,-0.9534,-0.9533,-0.9533,-0.9535,-0.9535,-0.9534,-0.9534,-0.9513,-0.9533,-0.9533,-0.9533,-0.9533,-0.9533,-0.9456,-0.9463,-0.9469,-0.9477,-0.9482,-0.9487,-0.9493,-0.9497,-0.9504,-0.9512,-0.9513,-0.9522,-0.9528,-0.9538,-0.9542,-0.9548,-0.9546,-0.9549,-0.955,-0.9551,-0.9551,-0.9532,-0.955,-0.955,-0.955,-0.955,-0.955,0,-0.9474,-0.9478,-0.9485,-0.9494,-0.95,-0.9498,-0.9505,-0.951,-0.9518,-0.9523,-0.953,-0.9539,-0.9547,-0.9551,-0.9559,-0.9563,-0.9563,-0.9565,-0.9565,-0.9566,-0.9553,-0.955,-0.9565,-0.9565,-0.9565,-0.9565,-0.9565,-0.9565,-0.9484,-0.9495,-0.9497,-0.951,-0.9513,-0.9522,-0.9526,-0.9531,-0.9535,-0.9545,-0.9552,-0.9554,-0.9559,-0.9567,-0.9573,-0.9574,-0.9577,-0.958,-0.958,-0.9568,-0.9567,-0.9565,-0.9563,-0.958,-0.958,-0.9592,-0.9593,-0.9593]}]]